�������l�o���
Date,Time,MP-1(��Sv/h),MP-2(��Sv/h),MP-3(��Sv/h),MP-4(��Sv/h),MP-5(��Sv/h),MP-6(��Sv/h),MP-7(��Sv/h),MP-8(��Sv/h),����,����(m/s),���J
2017/08/16,00:00,0.921,1.440,0.958,1.731,1.180,0.505,0.929,0.858,�k��,5.2,��
2017/08/16,00:10,0.920,1.440,0.960,1.732,1.179,0.507,0.928,0.857,�k��,5.2,��
2017/08/16,00:20,0.920,1.438,0.958,1.729,1.179,0.507,0.927,0.857,�k��,5.4,��
2017/08/16,00:30,0.922,1.440,0.959,1.735,1.179,0.505,0.927,0.858,�k��,6.4,�L
2017/08/16,00:40,0.921,1.442,0.957,1.732,1.179,0.507,0.928,0.859,�k��,6.7,��
2017/08/16,00:50,0.921,1.443,0.959,1.733,1.180,0.506,0.926,0.857,�k�k��,7.1,�L
2017/08/16,01:00,0.921,1.442,0.961,1.733,1.177,0.508,0.926,0.858,�k�k��,7.1,�L
2017/08/16,01:10,0.920,1.440,0.959,1.734,1.179,0.506,0.928,0.859,�k�k��,6.9,�L
2017/08/16,01:20,0.923,1.439,0.959,1.734,1.179,0.506,0.926,0.858,�k�k��,6.9,�L
2017/08/16,01:30,0.919,1.442,0.956,1.734,1.177,0.505,0.927,0.857,�k�k��,7.4,��
2017/08/16,01:40,0.921,1.446,0.959,1.730,1.180,0.506,0.929,0.857,�k�k��,7.2,��
2017/08/16,01:50,0.920,1.441,0.960,1.734,1.180,0.507,0.927,0.858,�k�k��,7.3,��
2017/08/16,02:00,0.920,1.441,0.958,1.734,1.181,0.505,0.927,0.857,�k�k��,7.3,��
2017/08/16,02:10,0.920,1.443,0.961,1.734,1.181,0.507,0.927,0.860,�k�k��,7.1,��
2017/08/16,02:20,0.921,1.445,0.960,1.737,1.181,0.506,0.928,0.859,�k�k��,7.7,��
2017/08/16,02:30,0.921,1.446,0.960,1.736,1.182,0.506,0.928,0.856,�k�k��,7.7,��
2017/08/16,02:40,0.922,1.444,0.959,1.737,1.185,0.506,0.928,0.858,�k�k��,7.9,��
2017/08/16,02:50,0.921,1.442,0.961,1.738,1.184,0.506,0.929,0.859,�k�k��,7.3,��
2017/08/16,03:00,0.921,1.445,0.959,1.737,1.180,0.505,0.928,0.858,�k�k��,7.5,��
2017/08/16,03:10,0.922,1.443,0.961,1.735,1.182,0.506,0.928,0.858,�k�k��,7.0,��
2017/08/16,03:20,0.922,1.443,0.959,1.740,1.183,0.507,0.929,0.859,�k�k��,6.6,��
2017/08/16,03:30,0.923,1.444,0.961,1.736,1.181,0.506,0.928,0.859,�k�k��,7.5,��
2017/08/16,03:40,0.925,1.445,0.960,1.737,1.181,0.507,0.928,0.859,�k�k��,7.0,��
2017/08/16,03:50,0.922,1.446,0.961,1.739,1.182,0.506,0.929,0.858,�k,6.9,��
2017/08/16,04:00,0.923,1.445,0.960,1.737,1.183,0.508,0.928,0.860,�k�k��,6.3,��
2017/08/16,04:10,0.922,1.446,0.961,1.735,1.182,0.506,0.930,0.859,�k�k��,6.9,��
2017/08/16,04:20,0.921,1.447,0.961,1.740,1.181,0.506,0.929,0.860,�k�k��,7.3,��
2017/08/16,04:30,0.921,1.446,0.960,1.737,1.182,0.507,0.929,0.860,�k�k��,7.2,��
2017/08/16,04:40,0.922,1.446,0.960,1.735,1.184,0.508,0.928,0.862,�k�k��,6.6,��
2017/08/16,04:50,0.922,1.446,0.961,1.735,1.180,0.506,0.930,0.859,�k�k��,7.3,��
2017/08/16,05:00,0.926,1.446,0.961,1.739,1.182,0.506,0.929,0.859,�k�k��,7.6,��
2017/08/16,05:10,0.924,1.448,0.962,1.741,1.183,0.506,0.929,0.861,�k�k��,8.0,��
2017/08/16,05:20,0.923,1.447,0.964,1.738,1.182,0.506,0.930,0.861,�k�k��,7.4,��
2017/08/16,05:30,0.924,1.450,0.961,1.739,1.185,0.506,0.928,0.861,�k�k��,7.1,��
2017/08/16,05:40,0.922,1.450,0.962,1.742,1.186,0.506,0.929,0.860,�k�k��,6.7,�L
2017/08/16,05:50,0.923,1.449,0.960,1.737,1.185,0.506,0.930,0.859,�k�k��,6.4,�L
2017/08/16,06:00,0.922,1.444,0.960,1.740,1.183,0.505,0.930,0.859,�k�k��,7.1,�L
2017/08/16,06:10,0.924,1.451,0.962,1.737,1.183,0.507,0.929,0.858,�k,6.2,�L
2017/08/16,06:20,0.921,1.449,0.961,1.739,1.181,0.506,0.931,0.861,�k,6.5,�L
2017/08/16,06:30,0.923,1.447,0.961,1.738,1.184,0.506,0.930,0.861,�k,5.8,�L
2017/08/16,06:40,0.919,1.449,0.961,1.740,1.184,0.507,0.931,0.860,�k,6.0,�L
2017/08/16,06:50,0.921,1.449,0.961,1.739,1.183,0.508,0.930,0.863,�k,4.7,�L
2017/08/16,07:00,0.922,1.450,0.963,1.739,1.185,0.506,0.927,0.861,�k,4.2,�L
2017/08/16,07:10,0.923,1.451,0.962,1.741,1.186,0.508,0.929,0.862,�k,4.0,�L
2017/08/16,07:20,0.923,1.450,0.966,1.739,1.187,0.506,0.929,0.863,�k�k��,4.5,�L
2017/08/16,07:30,0.924,1.452,0.963,1.738,1.189,0.507,0.929,0.861,�k,5.4,�L
2017/08/16,07:40,0.921,1.449,0.963,1.741,1.186,0.507,0.930,0.862,�k�k��,5.5,��
2017/08/16,07:50,0.924,1.451,0.965,1.740,1.188,0.508,0.933,0.863,�k�k��,5.7,��
2017/08/16,08:00,0.923,1.452,0.967,1.741,1.187,0.507,0.928,0.862,�k�k��,6.3,��
2017/08/16,08:10,0.922,1.454,0.964,1.741,1.187,0.508,0.931,0.861,�k�k��,6.1,��
2017/08/16,08:20,0.927,1.452,0.963,1.742,1.188,0.509,0.932,0.861,�k�k��,6.4,��
2017/08/16,08:30,0.923,1.449,0.961,1.742,1.187,0.507,0.930,0.860,�k�k��,6.3,�L
2017/08/16,08:40,0.923,1.448,0.962,1.741,1.184,0.507,0.931,0.861,�k�k��,5.8,�L
2017/08/16,08:50,0.921,1.448,0.964,1.740,1.186,0.507,0.929,0.863,�k,5.3,�L
2017/08/16,09:00,0.921,1.449,0.960,1.740,1.184,0.505,0.929,0.861,�k,5.2,�L
2017/08/16,09:10,0.920,1.447,0.962,1.740,1.181,0.507,0.927,0.861,�k,4.4,�L
2017/08/16,09:20,0.917,1.444,0.961,1.734,1.178,0.507,0.926,0.859,�k�k��,3.8,�L
2017/08/16,09:30,0.919,1.442,0.955,1.735,1.178,0.506,0.925,0.860,�k,4.4,�L
2017/08/16,09:40,0.920,1.443,0.955,1.737,1.178,0.504,0.927,0.856,�k�k��,4.0,�L
2017/08/16,09:50,0.919,1.440,0.956,1.733,1.174,0.504,0.927,0.860,�k�k��,3.2,�L
2017/08/16,10:00,0.919,1.441,0.955,1.733,1.174,0.504,0.928,0.859,�k�k��,3.5,�L
2017/08/16,10:10,0.917,1.439,0.954,1.734,1.175,0.504,0.927,0.858,�k,3.8,�L
2017/08/16,10:20,0.918,1.435,0.953,1.730,1.174,0.503,0.927,0.859,�k,4.6,�L
2017/08/16,10:30,0.918,1.438,0.953,1.730,1.174,0.505,0.926,0.859,�k,4.4,�L
2017/08/16,10:40,0.918,1.437,0.951,1.731,1.176,0.505,0.926,0.860,�k,4.8,�L
2017/08/16,10:50,0.919,1.438,0.954,1.728,1.173,0.505,0.927,0.858,�k,5.3,�L
2017/08/16,11:00,0.918,1.437,0.955,1.730,1.174,0.504,0.927,0.857,�k�k��,5.2,�L
2017/08/16,11:10,0.920,1.440,0.953,1.730,1.174,0.504,0.928,0.858,�k,4.6,�L
2017/08/16,11:20,0.921,1.437,0.955,1.731,1.177,0.503,0.926,0.860,�k,4.2,�L
2017/08/16,11:30,0.917,1.437,0.953,1.731,1.175,0.504,0.925,0.859,�k�k��,4.8,�L
2017/08/16,11:40,0.918,1.437,0.957,1.730,1.174,0.504,0.928,0.857,�k,4.6,�L
2017/08/16,11:50,0.918,1.439,0.956,1.730,1.175,0.505,0.929,0.859,�k,4.2,�L
2017/08/16,12:00,0.919,1.435,0.955,1.731,1.175,0.504,0.927,0.859,�k,4.4,�L
2017/08/16,12:10,0.918,1.439,0.959,1.732,1.177,0.504,0.928,0.859,�k�k��,3.9,�L
2017/08/16,12:20,0.917,1.442,0.958,1.732,1.180,0.504,0.927,0.859,�k,5.2,�L
2017/08/16,12:30,0.918,1.438,0.955,1.732,1.175,0.506,0.927,0.857,�k,5.9,�L
2017/08/16,12:40,0.918,1.438,0.954,1.732,1.177,0.506,0.926,0.859,�k,5.3,�L
2017/08/16,12:50,0.918,1.441,0.956,1.730,1.180,0.505,0.927,0.858,�k,4.9,�L
2017/08/16,13:00,0.917,1.436,0.956,1.731,1.178,0.506,0.927,0.860,�k,4.0,�L
2017/08/16,13:10,0.919,1.437,0.952,1.727,1.173,0.503,0.927,0.859,�k,4.8,�L
2017/08/16,13:20,0.916,1.435,0.953,1.726,1.175,0.505,0.928,0.859,�k,4.1,�L
2017/08/16,13:30,0.916,1.437,0.955,1.729,1.174,0.502,0.925,0.858,�k,4.2,�L
2017/08/16,13:40,0.918,1.436,0.951,1.726,1.175,0.504,0.926,0.857,�k,4.4,�L
2017/08/16,13:50,0.914,1.435,0.951,1.724,1.175,0.505,0.926,0.858,�k�k��,4.5,�L
2017/08/16,14:00,0.918,1.437,0.952,1.726,1.172,0.505,0.924,0.856,�k�k��,3.7,�L
2017/08/16,14:10,0.916,1.435,0.952,1.725,1.172,0.506,0.927,0.858,�k,4.0,�L
2017/08/16,14:20,0.918,1.434,0.952,1.724,1.172,0.505,0.925,0.858,�k�k��,4.3,�L
2017/08/16,14:30,0.918,1.436,0.952,1.725,1.174,0.504,0.927,0.860,�k�k��,4.4,�L
2017/08/16,14:40,0.919,1.439,0.951,1.723,1.175,0.505,0.926,0.859,�k�k��,4.3,�L
2017/08/16,14:50,0.917,1.437,0.952,1.727,1.175,0.506,0.927,0.859,�k,4.1,��
2017/08/16,15:00,0.919,1.437,0.955,1.729,1.177,0.506,0.927,0.860,�k�k��,3.9,��
2017/08/16,15:10,0.918,1.437,0.954,1.726,1.176,0.506,0.928,0.860,�k�k��,4.1,��
2017/08/16,15:20,0.919,1.437,0.955,1.727,1.177,0.506,0.928,0.858,�k,3.4,��
2017/08/16,15:30,0.918,1.434,0.955,1.726,1.175,0.505,0.929,0.858,�k,4.1,��
2017/08/16,15:40,0.918,1.437,0.956,1.728,1.177,0.505,0.928,0.859,�k,3.5,��
2017/08/16,15:50,0.919,1.437,0.958,1.729,1.177,0.504,0.928,0.859,�k�k��,4.4,�L
2017/08/16,16:00,0.919,1.438,0.955,1.728,1.176,0.505,0.927,0.858,�k�k��,4.2,�L
2017/08/16,16:10,0.917,1.437,0.959,1.729,1.176,0.506,0.927,0.857,�k�k��,3.5,�L
2017/08/16,16:20,0.919,1.438,0.954,1.727,1.174,0.506,0.929,0.859,�k�k��,4.1,�L
2017/08/16,16:30,0.921,1.437,0.956,1.726,1.179,0.505,0.927,0.858,�k�k��,3.2,�L
2017/08/16,16:40,0.921,1.436,0.955,1.728,1.177,0.505,0.927,0.858,�k�k��,3.4,��
2017/08/16,16:50,0.920,1.438,0.956,1.730,1.177,0.506,0.930,0.859,�k��,3.1,�L
2017/08/16,17:00,0.918,1.438,0.958,1.728,1.179,0.505,0.929,0.859,�k��,2.6,�L
2017/08/16,17:10,0.920,1.439,0.957,1.728,1.182,0.507,0.926,0.858,�k��,4.2,�L
2017/08/16,17:20,0.918,1.437,0.958,1.732,1.182,0.506,0.927,0.861,�k��,3.3,�L
2017/08/16,17:30,0.917,1.437,0.957,1.732,1.181,0.506,0.928,0.857,�k��,3.6,�L
2017/08/16,17:40,0.920,1.440,0.957,1.731,1.181,0.507,0.928,0.861,�k��,4.4,�L
2017/08/16,17:50,0.917,1.437,0.957,1.730,1.182,0.507,0.927,0.859,�k�k��,4.4,�L
2017/08/16,18:00,0.920,1.439,0.959,1.732,1.182,0.507,0.928,0.859,�k�k��,4.8,�L
2017/08/16,18:10,0.918,1.438,0.956,1.731,1.184,0.506,0.928,0.860,�k�k��,5.1,�L
2017/08/16,18:20,0.918,1.435,0.958,1.731,1.181,0.506,0.927,0.860,�k�k��,4.7,�L
2017/08/16,18:30,0.918,1.439,0.957,1.731,1.181,0.506,0.928,0.860,�k�k��,5.2,�L
2017/08/16,18:40,0.919,1.434,0.956,1.730,1.178,0.506,0.928,0.860,�k�k��,4.5,�L
2017/08/16,18:50,0.919,1.438,0.956,1.729,1.178,0.506,0.928,0.860,�k�k��,4.3,�L
2017/08/16,19:00,0.917,1.437,0.957,1.730,1.182,0.506,0.928,0.861,�k�k��,4.5,�L
2017/08/16,19:10,0.919,1.437,0.957,1.730,1.181,0.505,0.928,0.860,�k�k��,4.7,�L
2017/08/16,19:20,0.920,1.440,0.957,1.730,1.179,0.505,0.926,0.862,�k�k��,4.8,�L
2017/08/16,19:30,0.919,1.437,0.957,1.732,1.179,0.506,0.927,0.860,�k�k��,5.2,�L
2017/08/16,19:40,0.919,1.438,0.956,1.729,1.180,0.508,0.928,0.861,�k��,4.7,�L
2017/08/16,19:50,0.917,1.435,0.955,1.729,1.180,0.506,0.927,0.861,�k��,4.1,�L
2017/08/16,20:00,0.916,1.433,0.957,1.728,1.178,0.506,0.926,0.859,�k�k��,4.1,�L
2017/08/16,20:10,0.915,1.432,0.956,1.724,1.177,0.506,0.927,0.859,�k�k��,5.1,�L
2017/08/16,20:20,0.916,1.433,0.953,1.729,1.177,0.505,0.927,0.861,�k�k��,5.2,�L
2017/08/16,20:30,0.914,1.433,0.953,1.724,1.179,0.505,0.924,0.861,�k�k��,4.7,�L
2017/08/16,20:40,0.915,1.430,0.952,1.726,1.176,0.506,0.925,0.859,�k�k��,5.0,�L
2017/08/16,20:50,0.915,1.427,0.952,1.724,1.177,0.506,0.926,0.860,�k�k��,4.7,�L
2017/08/16,21:00,0.914,1.428,0.951,1.725,1.175,0.505,0.926,0.861,�k�k��,4.5,�L
2017/08/16,21:10,0.915,1.429,0.952,1.724,1.177,0.506,0.925,0.859,�k�k��,4.2,�L
2017/08/16,21:20,0.914,1.430,0.952,1.726,1.174,0.507,0.926,0.860,�k,3.9,�L
2017/08/16,21:30,0.915,1.428,0.954,1.725,1.179,0.506,0.925,0.862,�k,4.4,��
2017/08/16,21:40,0.916,1.430,0.952,1.727,1.177,0.505,0.926,0.859,�k�k��,4.7,�L
2017/08/16,21:50,0.915,1.430,0.952,1.725,1.180,0.505,0.926,0.859,�k�k��,4.5,�L
2017/08/16,22:00,0.914,1.432,0.955,1.727,1.176,0.508,0.928,0.860,�k�k��,3.7,�L
2017/08/16,22:10,0.914,1.430,0.954,1.725,1.178,0.508,0.927,0.859,�k�k��,3.2,�L
2017/08/16,22:20,0.912,1.421,0.951,1.718,1.170,0.504,0.924,0.858,�k��,3.2,�L
2017/08/16,22:30,0.907,1.412,0.947,1.711,1.156,0.503,0.920,0.856,�k�k��,2.0,�L
2017/08/16,22:40,0.897,1.388,0.930,1.687,1.139,0.500,0.914,0.852,�k,2.5,�L
2017/08/16,22:50,0.887,1.381,0.928,1.673,1.129,0.500,0.914,0.848,�k�k��,2.9,�L
2017/08/16,23:00,0.892,1.383,0.925,1.670,1.130,0.498,0.911,0.848,�k�k��,3.1,�L
2017/08/16,23:10,0.892,1.386,0.929,1.671,1.130,0.500,0.912,0.845,�k�k��,2.3,�L
2017/08/16,23:20,0.895,1.393,0.934,1.678,1.135,0.497,0.913,0.846,�k�k��,3.2,�L
2017/08/16,23:30,0.897,1.393,0.933,1.683,1.137,0.502,0.911,0.847,�k,2.6,�L
2017/08/16,23:40,0.896,1.388,0.931,1.679,1.132,0.500,0.911,0.848,�k�k��,3.0,�L
2017/08/16,23:50,0.895,1.391,0.932,1.676,1.131,0.499,0.910,0.846,�k,2.3,�L
